Weather reports worldwide

Advertisment
Topcliffe, United Kingdom (3265): temperature & dewpoint: 19.02.2020 10:00:00 - 25.02.2020 10:00:00 (GMT)Topcliffe, United Kingdom (3265): wind speed & gusts: 19.02.2020 10:00:00 - 25.02.2020 10:00:00 (GMT)Topcliffe, United Kingdom (3265): wind direction: 19.02.2020 10:00:00 - 25.02.2020 10:00:00 (GMT)Topcliffe, United Kingdom (3265): reduced air pressure: 19.02.2020 10:00:00 - 25.02.2020 10:00:00 (GMT)Topcliffe, United Kingdom (3265): visibility: 19.02.2020 10:00:00 - 25.02.2020 10:00:00 (GMT)Topcliffe, United Kingdom (3265): precipitation: 19.02.2020 10:00:00 - 25.02.2020 10:00:00 (GMT)
Date & Time tt [°C] td [°C] ff [km/h] ff [kn] fx [km/h] fx [kn] dd ppp [hPa] vv [km] rr [mm]
25.02.2020 10:00:00 4,3 1,9 16 9 - - WSW 995,2 10 0,0
25.02.2020 09:00:00 3,6 1,3 13 7 - - WSW 995,8 10 0,0
25.02.2020 08:00:00 3,6 1,4 15 8 - - WSW 996,1 45 0,0
25.02.2020 07:00:00 4,4 -0,1 11 6 - - W 996,5 10 0,0
25.02.2020 06:00:00 4,0 0,3 9 5 - - WNW 996,4 50 0,0
25.02.2020 05:00:00 3,1 -0,1 8 4 48 26 NNW 997,0 10 0,0
25.02.2020 04:00:00 4,8 1,0 16 9 50 27 WNW 996,8 50 0,0
25.02.2020 03:00:00 5,0 -0,2 26 14 - - W 997,2 10 0,0
25.02.2020 02:00:00 5,0 0,5 28 15 59 32 W 997,8 50 0,0
25.02.2020 01:00:00 5,2 0,7 29 16 54 29 W 997,9 50 0,0
25.02.2020 00:00:00 5,1 1,2 22 12 48 26 W 997,9 10 0,0
24.02.2020 23:00:00 4,8 1,1 31 17 61 33 W 997,6 50 0,0
24.02.2020 22:00:00 5,2 1,0 31 17 55 30 W 997,5 10 0,0
24.02.2020 21:00:00 5,4 1,0 35 19 78 42 W 997,2 10 0,0
24.02.2020 20:00:00 5,5 1,3 37 20 68 37 W 997,0 10 0,0
24.02.2020 19:00:00 6,1 1,5 44 24 74 40 W 995,9 10 0,0
24.02.2020 18:00:00 6,6 2,2 41 22 72 39 W 995,5 50 0,0
24.02.2020 17:00:00 7,4 4,4 39 21 70 38 WSW 995,2 50 0,0
24.02.2020 16:00:00 9,6 5,5 46 25 76 41 W 994,3 45 0,0
24.02.2020 15:00:00 10,8 7,2 39 21 63 34 W 993,8 10 0,0
24.02.2020 14:00:00 9,9 7,7 18 10 55 30 W 994,4 45 0,0
24.02.2020 13:00:00 5,4 5,4 15 8 - - SE 995,2 7 0,0
24.02.2020 12:00:00 2,7 2,7 9 5 - - SSE 996,7 0,6 2,0
24.02.2020 11:00:00 1,9 1,9 11 6 - - SSE 998,0 2,7 2,2
24.02.2020 10:00:00 1,3 1,0 22 12 - - ESE 999,9 6 1,8
24.02.2020 09:00:00 0,9 0,6 29 16 - - ESE 1002,2 5 1,8
24.02.2020 08:00:00 0,5 0,3 29 16 - - ESE 1004,9 1,9 1,4
24.02.2020 07:00:00 0,4 0,3 29 16 - - ESE 1007,8 1,6 0,8
24.02.2020 06:00:00 0,2 0,1 18 10 - - ESE 1011,3 1,3 1,0
24.02.2020 05:00:00 1,8 1,2 22 12 - - SE 1013,9 6 2,2
24.02.2020 04:00:00 3,6 1,7 15 8 - - SSE 1015,3 10 0,2
24.02.2020 03:00:00 3,2 1,5 15 8 - - SSE 1016,8 10 0,0
24.02.2020 02:00:00 2,7 0,9 11 6 - - SSE 1018,6 10 0,0
24.02.2020 01:00:00 2,0 0,3 11 6 - - SSE 1019,9 30 0,0
24.02.2020 00:00:00 2,3 0,3 9 5 48 26 S 1020,4 10 0,0
23.02.2020 23:00:00 2,4 0,0 11 6 - - SSW 1020,8 30 0,0
23.02.2020 22:00:00 2,8 0,4 9 5 - - WSW 1020,5 10 0,0
23.02.2020 21:00:00 0,9 -2,3 4 2 - - SW 1020,1 10 0,0
23.02.2020 20:00:00 4,0 -0,7 8 4 - - WNW 1020,0 27 0,0
23.02.2020 19:00:00 4,3 -0,1 8 4 - - WSW 1019,6 10 0,0
23.02.2020 18:00:00 5,2 -0,1 15 8 - - WNW 1018,0 10 0,0
23.02.2020 17:00:00 5,9 0,1 18 10 52 28 W 1016,6 35 0,0
23.02.2020 16:00:00 6,8 0,1 29 16 59 32 WNW 1015,4 10 0,0
23.02.2020 15:00:00 7,2 -0,3 39 21 67 36 WNW 1014,1 35 0,0
23.02.2020 14:00:00 6,9 0,0 37 20 57 31 WNW 1012,6 40 0,0
23.02.2020 13:00:00 4,9 1,3 39 21 57 31 NW 1011,8 10 0,0
23.02.2020 12:00:00 5,6 1,9 37 20 55 30 WNW 1010,9 10 0,0
23.02.2020 11:00:00 6,1 3,1 31 17 46 25 WNW 1008,5 10 0,0
23.02.2020 10:00:00 6,1 4,7 24 13 - - WNW 1007,1 50 0,0
23.02.2020 09:00:00 5,2 4,5 5 3 - - WSW 1005,3 10 0,0
23.02.2020 08:00:00 4,7 4,3 13 7 - - SW 1004,1 10 0,2
23.02.2020 07:00:00 4,7 4,4 11 6 - - SSE 1004,3 30 0,4
23.02.2020 06:00:00 4,8 4,5 15 8 - - SSE 1004,8 10 0,8
23.02.2020 05:00:00 4,8 4,3 15 8 - - SSE 1005,8 50 0,8
23.02.2020 04:00:00 5,1 4,2 15 8 - - S 1007,3 30 0,6
23.02.2020 03:00:00 5,5 4,1 16 9 - - SW 1009,0 35 0,2
23.02.2020 02:00:00 5,7 4,1 28 15 48 26 SW 1010,2 50 0,2
23.02.2020 01:00:00 5,9 4,4 26 14 - - SW 1011,4 10 0,0
23.02.2020 00:00:00 5,0 2,8 24 13 52 28 WSW 1012,1 10 0,0
22.02.2020 23:00:00 6,0 2,9 35 19 50 27 WSW 1012,6 45 0,0
22.02.2020 22:00:00 5,1 3,0 22 12 50 27 W 1013,6 50 0,6
22.02.2020 21:00:00 6,8 1,3 29 16 59 32 WSW 1013,2 10 0,0
22.02.2020 20:00:00 6,8 1,2 34 18 52 28 WSW 1012,8 10 0,0
22.02.2020 19:00:00 6,7 1,4 29 16 57 31 W 1013,0 19 0,0
22.02.2020 18:00:00 7,0 0,5 39 21 55 30 W 1012,5 23 0,0
22.02.2020 17:00:00 7,2 0,4 42 23 80 43 W 1012,0 27 0,0
22.02.2020 16:00:00 6,7 0,0 48 26 89 48 W 1010,9 35 0,0
22.02.2020 15:00:00 4,8 1,9 57 31 91 49 W 1011,2 4,9 0,6
22.02.2020 14:00:00 8,4 1,0 44 24 93 50 W 1009,9 10 0,0
22.02.2020 13:00:00 8,7 0,6 59 32 94 51 W 1008,8 25 0,0
22.02.2020 12:00:00 8,5 1,2 55 30 85 46 W 1008,5 10 0,0
22.02.2020 11:00:00 8,4 2,7 55 30 80 43 WSW 1008,1 10 0,0
22.02.2020 10:00:00 8,6 2,2 46 25 76 41 W 1007,2 10 0,0
22.02.2020 09:00:00 8,0 2,2 42 23 61 33 WSW 1006,0 10 0,2
22.02.2020 08:00:00 7,5 4,3 29 16 52 28 WSW 1005,6 9 0,2
22.02.2020 07:00:00 7,7 4,8 18 10 65 35 WSW 1004,2 50 0,0
22.02.2020 06:00:00 9,6 5,9 44 24 72 39 W 1003,2 35 0,2
22.02.2020 05:00:00 9,8 6,0 55 30 80 43 WSW 1001,9 14 1,2
22.02.2020 04:00:00 10,1 9,0 34 18 54 29 SW 1001,3 6 0,4
22.02.2020 03:00:00 9,5 8,6 39 21 59 32 SW 1001,3 8 0,4
22.02.2020 02:00:00 9,6 8,3 41 22 68 37 SW 1002,6 10 1,0
22.02.2020 01:00:00 9,5 8,1 44 24 65 35 SW 1003,2 7 2,0
22.02.2020 00:00:00 9,4 7,9 42 23 65 35 SW 1004,1 10 1,2
21.02.2020 23:00:00 9,3 7,8 35 19 61 33 SW 1005,6 10 0,4
21.02.2020 22:00:00 9,3 7,6 29 16 54 29 SW 1007,0 10 0,4
21.02.2020 21:00:00 9,6 7,3 26 14 - - SW 1007,7 10 0,0
21.02.2020 20:00:00 9,6 7,2 24 13 54 29 SSW 1008,2 10 0,0
21.02.2020 19:00:00 9,8 7,1 37 20 68 37 SW 1008,4 10 0,0
21.02.2020 18:00:00 9,8 7,2 46 25 70 38 SW 1008,6 30 0,0
21.02.2020 17:00:00 9,8 7,2 37 20 61 33 SW 1009,4 10 0,0
21.02.2020 16:00:00 9,8 7,2 34 18 59 32 SSW 1009,9 40 0,0
21.02.2020 15:00:00 10,5 7,1 31 17 52 28 SW 1010,8 10 0,0
21.02.2020 14:00:00 10,1 6,6 26 14 57 31 SW 1010,7 45 0,0
21.02.2020 13:00:00 10,0 6,1 37 20 80 43 SW 1011,3 30 0,0
21.02.2020 12:00:00 10,0 5,8 46 25 80 43 SW 1010,7 28 0,0
21.02.2020 11:00:00 8,9 5,2 29 16 54 29 SW 1011,7 23 0,0
21.02.2020 10:00:00 7,8 4,9 31 17 57 31 SSW 1012,1 30 0,0
21.02.2020 09:00:00 7,1 4,7 34 18 52 28 SSW 1012,3 10 0,0
21.02.2020 08:00:00 7,0 3,4 28 15 - - SW 1012,5 17 0,2
21.02.2020 07:00:00 5,5 3,5 21 11 57 31 SSW 1013,2 10 0,0
21.02.2020 06:00:00 6,5 3,0 34 18 54 29 SW 1014,0 10 0,0
21.02.2020 05:00:00 6,2 2,7 28 15 48 26 SW 1014,3 10 0,0
21.02.2020 04:00:00 6,2 2,5 26 14 - - SW 1014,7 10 0,0
21.02.2020 03:00:00 6,0 2,3 21 11 - - SW 1014,7 10 0,0
21.02.2020 02:00:00 6,2 1,6 28 15 46 25 WSW 1014,6 24 0,0
21.02.2020 01:00:00 6,2 1,6 22 12 - - WSW 1014,4 10 0,0
21.02.2020 00:00:00 5,8 1,3 29 16 48 26 WSW 1013,8 10 0,0
20.02.2020 23:00:00 5,5 0,9 24 13 52 28 WSW 1013,0 10 0,0
20.02.2020 22:00:00 5,7 0,2 31 17 50 27 W 1011,9 30 0,0
20.02.2020 21:00:00 5,5 0,6 34 18 54 29 WSW 1011,1 10 0,0
20.02.2020 20:00:00 5,3 -0,2 31 17 52 28 W 1010,2 10 0,0
20.02.2020 19:00:00 4,8 -0,5 29 16 59 32 W 1009,1 50 0,0
20.02.2020 18:00:00 4,0 0,1 22 12 65 35 W 1007,9 10 0,0
20.02.2020 17:00:00 5,6 -0,6 31 17 61 33 W 1006,5 10 0,0
20.02.2020 16:00:00 6,5 -1,0 31 17 59 32 W 1004,6 10 0,0
20.02.2020 15:00:00 6,9 0,9 31 17 50 27 W 1002,9 10 0,0
20.02.2020 14:00:00 5,7 1,9 28 15 46 25 W 1001,7 10 0,2
20.02.2020 13:00:00 6,8 1,7 26 14 - - WNW 1000,7 50 0,0
20.02.2020 12:00:00 6,0 2,5 35 19 61 33 WNW 999,9 50 0,0
20.02.2020 11:00:00 7,9 4,9 22 12 - - WSW 997,5 50 0,2
20.02.2020 10:00:00 8,4 5,4 31 17 52 28 W 997,0 15 0,4
20.02.2020 09:00:00 10,2 6,9 34 18 52 28 SSW 996,3 50 0,0
20.02.2020 08:00:00 9,8 6,6 26 14 - - S 997,3 10 0,0
20.02.2020 07:00:00 9,6 6,6 29 16 50 27 S 998,3 50 0,0
20.02.2020 06:00:00 9,6 6,9 28 15 - - S 999,5 50 0,0
20.02.2020 05:00:00 9,7 7,1 31 17 - - S 1000,2 10 0,0
20.02.2020 04:00:00 9,8 7,3 29 16 48 26 SSW 1001,3 10 0,0
20.02.2020 03:00:00 9,3 7,5 24 13 - - SSW 1002,2 10 0,0
20.02.2020 02:00:00 8,9 7,7 16 9 - - SSW 1002,9 50 0,0
20.02.2020 01:00:00 8,1 7,8 22 12 - - SSW 1003,5 5 0,0
20.02.2020 00:00:00 8,4 7,8 24 13 48 26 SSW 1004,3 5 0,0
19.02.2020 23:00:00 8,1 7,7 18 10 - - S 1004,6 7 0,0
19.02.2020 22:00:00 7,9 7,5 16 9 - - SE 1005,4 7 0,0
19.02.2020 21:00:00 8,2 7,1 28 15 - - SSW 1005,8 10 0,0
19.02.2020 20:00:00 7,8 6,5 21 11 - - S 1006,5 10 0,0
19.02.2020 19:00:00 7,6 6,1 21 11 - - S 1007,3 45 0,0
19.02.2020 18:00:00 7,7 5,8 28 15 - - SSW 1007,9 50 0,0
19.02.2020 17:00:00 5,9 4,9 26 14 - - SSE 1008,6 10 0,0
19.02.2020 16:00:00 5,5 4,0 22 12 - - SSE 1009,9 21 0,0
19.02.2020 15:00:00 5,3 3,2 18 10 - - S 1011,6 10 0,0
19.02.2020 14:00:00 5,4 2,9 18 10 - - S 1013,0 24 0,0
19.02.2020 13:00:00 6,1 2,9 22 12 - - SSW 1014,2 10 0,0
19.02.2020 12:00:00 6,3 2,6 15 8 - - SW 1014,9 10 0,0
19.02.2020 11:00:00 5,8 2,4 21 11 - - SW 1015,4 20 0,0
19.02.2020 10:00:00 5,6 1,8 16 9 - - W 1015,4 25 0,0

tt = temperature
td = dewpoint
ff = wind speed
fx = gusts
dd = wind direction
ppp = reduced air pressure
vv = visibility
rr = precipitation

Next stations